Year,Month,Day,Hour,Minute,Value (Times are PST for temperature in C)
2015,05,22,00,00,12.80
2015,05,22,00,01,12.90
2015,05,22,00,02,12.90
2015,05,22,00,03,12.90
2015,05,22,00,04,13.00
2015,05,22,00,05,13.00
2015,05,22,00,06,13.00
2015,05,22,00,07,13.10
2015,05,22,00,08,13.10
2015,05,22,00,09,13.10
2015,05,22,00,10,13.10
2015,05,22,00,11,13.20
2015,05,22,00,12,13.20
2015,05,22,00,13,13.20
2015,05,22,00,14,13.30
2015,05,22,00,15,13.30
2015,05,22,00,16,13.30
2015,05,22,00,17,13.40
2015,05,22,00,18,13.40
2015,05,22,00,19,13.40
2015,05,22,00,20,13.40
2015,05,22,00,21,13.50
2015,05,22,00,22,13.50
2015,05,22,00,23,13.50
2015,05,22,00,24,13.60
2015,05,22,00,25,13.60
2015,05,22,00,26,13.60
2015,05,22,00,27,13.60
2015,05,22,00,28,13.60
2015,05,22,00,29,13.60
2015,05,22,00,30,13.50
2015,05,22,00,31,13.50
2015,05,22,00,32,13.50
2015,05,22,00,33,13.50
2015,05,22,00,34,13.50
2015,05,22,00,35,13.40
2015,05,22,00,36,13.40
2015,05,22,00,37,13.40
2015,05,22,00,38,13.30
2015,05,22,00,39,13.30
2015,05,22,00,40,13.20
2015,05,22,00,41,13.10
2015,05,22,00,42,13.00
2015,05,22,00,43,12.90
2015,05,22,00,44,12.80
2015,05,22,00,45,12.70
2015,05,22,00,46,12.60
2015,05,22,00,47,12.50
2015,05,22,00,48,12.40
2015,05,22,00,49,12.30
2015,05,22,00,50,12.20
2015,05,22,00,51,12.20
2015,05,22,00,52,12.10
2015,05,22,00,53,12.00
2015,05,22,00,54,12.00
2015,05,22,00,55,11.90
2015,05,22,00,56,11.90
2015,05,22,00,57,11.80
2015,05,22,00,58,11.80
2015,05,22,00,59,11.80
2015,05,22,01,00,11.70
2015,05,22,01,01,11.70
2015,05,22,01,02,11.70
2015,05,22,01,03,11.60
2015,05,22,01,04,11.60
2015,05,22,01,05,11.60
2015,05,22,01,06,11.60
2015,05,22,01,07,11.60
2015,05,22,01,08,11.60
2015,05,22,01,09,11.60
2015,05,22,01,10,11.60
2015,05,22,01,11,11.60
2015,05,22,01,12,11.60
2015,05,22,01,13,11.60
2015,05,22,01,14,11.60
2015,05,22,01,15,11.60
2015,05,22,01,16,11.60
2015,05,22,01,17,11.50
2015,05,22,01,18,11.50
2015,05,22,01,19,11.50
2015,05,22,01,20,11.50
2015,05,22,01,21,11.50
2015,05,22,01,22,11.40
2015,05,22,01,23,11.40
2015,05,22,01,24,11.40
2015,05,22,01,25,11.40
2015,05,22,01,26,11.30
2015,05,22,01,27,11.30
2015,05,22,01,28,11.30
2015,05,22,01,29,11.30
2015,05,22,01,30,11.30
2015,05,22,01,31,11.30
2015,05,22,01,32,11.30
2015,05,22,01,33,11.30
2015,05,22,01,34,11.20
2015,05,22,01,35,11.20
2015,05,22,01,36,11.20
2015,05,22,01,37,11.20
2015,05,22,01,38,11.20
2015,05,22,01,39,11.20
2015,05,22,01,40,11.20
2015,05,22,01,41,11.20
2015,05,22,01,42,11.20
2015,05,22,01,43,11.20
2015,05,22,01,44,11.10
2015,05,22,01,45,11.10
2015,05,22,01,46,11.10
2015,05,22,01,47,11.10
2015,05,22,01,48,11.10
2015,05,22,01,49,11.10
2015,05,22,01,50,11.10
2015,05,22,01,51,11.10
2015,05,22,01,52,11.10
2015,05,22,01,53,11.10
2015,05,22,01,54,11.10
2015,05,22,06,25,11.70
2015,05,22,06,26,11.70
2015,05,22,06,27,11.70
2015,05,22,06,28,11.70
2015,05,22,06,29,11.70
2015,05,22,06,30,11.70
2015,05,22,06,31,11.70
2015,05,22,06,32,11.70
2015,05,22,06,33,11.70
2015,05,22,06,34,11.70
2015,05,22,06,35,11.80
2015,05,22,06,36,11.80
2015,05,22,06,37,11.80
2015,05,22,06,38,11.80
2015,05,22,06,39,11.80
2015,05,22,06,40,11.90
2015,05,22,06,41,11.90
2015,05,22,06,42,11.90
2015,05,22,06,43,11.90
2015,05,22,06,44,12.00
2015,05,22,06,45,12.00
2015,05,22,06,46,12.10
2015,05,22,06,47,12.10
2015,05,22,06,48,12.20
2015,05,22,06,49,12.20
2015,05,22,06,50,12.30
2015,05,22,06,51,12.30
2015,05,22,06,52,12.40
2015,05,22,06,53,12.40
2015,05,22,06,54,12.50
2015,05,22,06,55,12.60
2015,05,22,06,56,12.60
2015,05,22,06,57,12.70
2015,05,22,06,58,12.80
2015,05,22,06,59,12.90
2015,05,22,07,00,13.00
2015,05,22,07,01,13.10
2015,05,22,07,02,13.10
2015,05,22,07,03,13.20
2015,05,22,07,04,13.20
2015,05,22,07,05,13.20
2015,05,22,07,06,13.20
2015,05,22,07,07,13.20
2015,05,22,07,08,13.20
2015,05,22,07,09,13.20
2015,05,22,07,10,13.10
2015,05,22,07,11,13.10
2015,05,22,07,12,13.10
2015,05,22,07,13,13.00
2015,05,22,07,14,12.90
2015,05,22,07,15,12.90
2015,05,22,07,16,12.90
2015,05,22,07,17,12.80
2015,05,22,07,18,12.80
2015,05,22,07,19,12.80
2015,05,22,07,20,12.90
2015,05,22,07,21,12.90
2015,05,22,07,22,12.90
2015,05,22,07,23,13.00
2015,05,22,07,24,13.00
2015,05,22,07,25,13.00
2015,05,22,07,26,13.00
2015,05,22,07,27,13.00
2015,05,22,07,28,13.00
2015,05,22,07,29,13.00
2015,05,22,07,30,13.00
2015,05,22,07,31,13.00
2015,05,22,07,32,13.00
2015,05,22,07,33,13.10
2015,05,22,07,34,13.10
2015,05,22,07,35,13.10
2015,05,22,07,36,13.20
2015,05,22,07,37,13.20
2015,05,22,07,38,13.20
2015,05,22,07,39,13.20
2015,05,22,07,40,13.20
2015,05,22,07,41,13.30
2015,05,22,07,42,13.30
2015,05,22,07,43,13.30
2015,05,22,07,44,13.40
2015,05,22,07,45,13.40
2015,05,22,07,46,13.40
2015,05,22,07,47,13.40
2015,05,22,07,48,13.40
2015,05,22,07,49,13.40
2015,05,22,07,50,13.50
2015,05,22,07,51,13.50
2015,05,22,07,52,13.60
2015,05,22,07,53,13.70
2015,05,22,07,54,13.80
2015,05,22,07,55,13.80
2015,05,22,07,56,13.90
2015,05,22,07,57,14.00
2015,05,22,07,58,14.10
2015,05,22,07,59,14.10
2015,05,22,08,00,14.20
2015,05,22,08,01,14.20
2015,05,22,08,02,14.30
2015,05,22,08,03,14.30
2015,05,22,08,04,14.30
2015,05,22,08,05,14.30
2015,05,22,08,06,14.30
2015,05,22,08,07,14.30
2015,05,22,08,08,14.20
2015,05,22,08,09,14.20
2015,05,22,08,10,14.10
2015,05,22,08,11,14.10
2015,05,22,08,12,14.00
2015,05,22,08,13,14.00
2015,05,22,08,14,14.00
2015,05,22,08,15,14.10
2015,05,22,08,16,14.10
2015,05,22,08,17,14.10
2015,05,22,08,18,14.10
2015,05,22,08,19,14.10
2015,05,22,08,20,14.20
2015,05,22,08,21,14.20
2015,05,22,08,22,14.30
2015,05,22,08,23,14.30
2015,05,22,08,24,14.30
2015,05,22,08,25,14.40
2015,05,22,08,26,14.50
2015,05,22,08,27,14.50
2015,05,22,08,28,14.60
2015,05,22,08,29,14.70
2015,05,22,08,30,14.70
2015,05,22,08,31,14.70
2015,05,22,08,32,14.80
2015,05,22,08,33,14.90
2015,05,22,08,34,14.90
2015,05,22,08,35,15.10
2015,05,22,08,36,15.20
2015,05,22,08,37,15.30
2015,05,22,08,38,15.50
2015,05,22,08,39,15.60
2015,05,22,08,40,15.80
2015,05,22,08,41,16.10
2015,05,22,08,42,16.30
2015,05,22,08,43,16.40
2015,05,22,08,44,16.50
2015,05,22,08,45,16.50
2015,05,22,08,46,16.50
2015,05,22,08,47,16.40
2015,05,22,08,48,16.30
2015,05,22,08,49,16.30
2015,05,22,08,50,16.40
2015,05,22,08,51,16.50
2015,05,22,08,52,16.60
2015,05,22,08,53,16.50
2015,05,22,08,54,16.50
2015,05,22,08,55,16.50
2015,05,22,08,56,16.50
2015,05,22,08,57,16.50
2015,05,22,08,58,16.60
2015,05,22,08,59,16.70
2015,05,22,09,00,16.70
2015,05,22,09,01,16.80
2015,05,22,09,02,16.80
2015,05,22,09,03,17.00
2015,05,22,09,04,17.10
2015,05,22,09,05,17.20
2015,05,22,09,06,17.30
2015,05,22,09,07,17.40
2015,05,22,09,08,17.60
2015,05,22,09,09,17.70
2015,05,22,09,10,17.70
2015,05,22,09,11,17.80
2015,05,22,09,12,17.80
2015,05,22,09,13,17.80
2015,05,22,09,14,17.70
2015,05,22,09,15,17.70
2015,05,22,09,16,17.70
2015,05,22,09,17,17.80
2015,05,22,09,18,17.80
2015,05,22,09,19,17.80
2015,05,22,09,20,17.80
2015,05,22,09,21,17.90
2015,05,22,09,22,17.90
2015,05,22,09,23,17.90
2015,05,22,09,24,17.80
2015,05,22,09,25,17.80
2015,05,22,09,26,17.70
2015,05,22,09,27,17.50
2015,05,22,09,28,17.40
2015,05,22,09,29,17.20
2015,05,22,09,30,17.10
2015,05,22,09,31,16.90
2015,05,22,09,32,16.80
2015,05,22,09,33,16.80
2015,05,22,09,34,16.70
2015,05,22,09,35,16.70
2015,05,22,09,36,16.70
2015,05,22,09,37,16.70
2015,05,22,09,38,16.60
2015,05,22,09,39,16.60
2015,05,22,09,40,16.60
2015,05,22,09,41,16.60
2015,05,22,09,42,16.60
2015,05,22,09,43,16.60
2015,05,22,09,44,16.60
2015,05,22,09,45,16.60
2015,05,22,09,46,16.70
2015,05,22,09,47,16.80
2015,05,22,09,48,16.80
2015,05,22,09,49,16.90
2015,05,22,09,50,17.00
2015,05,22,09,51,17.10
2015,05,22,09,52,17.10
2015,05,22,09,53,17.10
2015,05,22,09,54,17.10
2015,05,22,09,55,17.10
2015,05,22,09,56,17.10
2015,05,22,09,57,17.10
2015,05,22,09,58,17.10
2015,05,22,09,59,17.20
2015,05,22,10,00,17.30
2015,05,22,10,01,17.50
2015,05,22,10,02,17.60
2015,05,22,10,03,17.60
2015,05,22,10,04,17.40
2015,05,22,10,05,17.20
2015,05,22,10,06,17.10
2015,05,22,10,07,16.90
2015,05,22,10,08,16.70
2015,05,22,10,09,16.60
2015,05,22,10,10,16.60
2015,05,22,10,11,16.50
2015,05,22,10,12,16.40
2015,05,22,10,13,16.30
2015,05,22,10,14,16.20
2015,05,22,10,15,16.20
2015,05,22,10,16,16.20
2015,05,22,10,17,16.10
2015,05,22,10,18,16.10
2015,05,22,10,19,16.20
2015,05,22,10,20,16.20
2015,05,22,10,21,16.20
2015,05,22,10,22,16.30
2015,05,22,10,23,16.30
2015,05,22,10,24,16.40
2015,05,22,10,25,16.40
2015,05,22,10,26,16.40
2015,05,22,10,27,16.50
2015,05,22,10,28,16.50
2015,05,22,10,29,16.40
2015,05,22,10,30,16.40
2015,05,22,10,31,16.40
2015,05,22,10,32,16.40
2015,05,22,10,33,16.30
2015,05,22,10,34,16.40
2015,05,22,10,35,16.40
2015,05,22,10,36,16.30
2015,05,22,10,37,16.20
2015,05,22,10,38,16.30
2015,05,22,10,39,16.30
2015,05,22,10,40,16.40
2015,05,22,10,41,16.50
2015,05,22,10,42,16.60
2015,05,22,10,43,16.70
2015,05,22,10,44,16.80
2015,05,22,10,45,16.90
2015,05,22,10,46,17.00
2015,05,22,10,47,17.20
2015,05,22,10,48,17.40
2015,05,22,10,49,17.50
2015,05,22,10,50,17.60
2015,05,22,10,51,17.60
2015,05,22,10,52,17.60
2015,05,22,10,53,17.70
2015,05,22,10,54,17.80
2015,05,22,10,55,17.70
2015,05,22,10,56,17.60
2015,05,22,10,57,17.50
2015,05,22,10,58,17.60
2015,05,22,10,59,17.80
2015,05,22,11,00,17.90
2015,05,22,11,01,18.00
2015,05,22,11,02,18.20
2015,05,22,11,03,18.20
2015,05,22,11,04,18.10
2015,05,22,11,05,18.00
2015,05,22,11,06,17.90
2015,05,22,11,07,17.80
2015,05,22,11,08,17.60
2015,05,22,11,09,17.60
2015,05,22,11,10,17.60
2015,05,22,11,11,17.50
2015,05,22,11,12,17.30
2015,05,22,11,13,17.30
2015,05,22,11,14,17.30
2015,05,22,11,15,17.30
2015,05,22,11,16,17.30
2015,05,22,11,17,17.30
2015,05,22,11,18,17.50
2015,05,22,11,19,17.60
2015,05,22,11,20,17.60
2015,05,22,11,21,17.60
2015,05,22,11,22,17.70
2015,05,22,11,23,17.90
2015,05,22,11,24,18.00
2015,05,22,11,25,18.00
2015,05,22,11,26,17.80
2015,05,22,11,27,17.70
2015,05,22,11,28,17.60
2015,05,22,11,29,17.60
2015,05,22,11,30,17.50
2015,05,22,11,31,17.30
2015,05,22,11,32,17.30
2015,05,22,11,33,17.30
2015,05,22,11,34,17.40
2015,05,22,11,35,17.50
2015,05,22,11,36,17.60
2015,05,22,11,37,17.70
2015,05,22,11,38,17.70
2015,05,22,11,39,17.60
2015,05,22,11,40,17.40
2015,05,22,11,41,17.20
2015,05,22,11,42,17.10
2015,05,22,11,43,17.00
2015,05,22,11,44,16.90
2015,05,22,11,45,16.90
2015,05,22,11,46,16.90
2015,05,22,11,47,16.90
2015,05,22,11,48,16.90
2015,05,22,11,49,16.80
2015,05,22,11,50,16.70
2015,05,22,11,51,16.70
2015,05,22,11,52,16.70
2015,05,22,11,53,16.70
2015,05,22,11,54,16.70
2015,05,22,11,55,16.60
2015,05,22,11,56,16.60
2015,05,22,11,57,16.60
2015,05,22,11,58,16.60
2015,05,22,11,59,16.70
2015,05,22,12,00,16.90
2015,05,22,12,01,17.00
2015,05,22,12,02,17.10
2015,05,22,12,03,17.20
2015,05,22,12,04,17.20
2015,05,22,12,05,17.30
2015,05,22,12,06,17.20
2015,05,22,12,07,17.20
2015,05,22,12,08,17.30
2015,05,22,12,09,17.30
2015,05,22,12,10,17.30
2015,05,22,12,11,17.30
2015,05,22,12,12,17.40
2015,05,22,12,13,17.40
2015,05,22,12,14,17.50
2015,05,22,12,15,17.40
2015,05,22,12,16,17.40
2015,05,22,12,17,17.30
2015,05,22,12,18,17.30
2015,05,22,12,19,17.20
2015,05,22,12,20,17.10
2015,05,22,12,21,16.90
2015,05,22,12,22,16.90
2015,05,22,12,23,16.90
2015,05,22,12,24,16.90
2015,05,22,12,25,16.90
2015,05,22,12,26,17.00
2015,05,22,12,27,17.00
2015,05,22,12,28,16.90
2015,05,22,12,29,16.80
2015,05,22,12,30,16.80
2015,05,22,12,31,16.80
2015,05,22,12,32,16.80
2015,05,22,12,33,16.90
2015,05,22,12,34,17.00
2015,05,22,12,35,17.10
2015,05,22,12,36,17.00
2015,05,22,12,37,16.90
2015,05,22,12,38,16.90
2015,05,22,12,39,16.80
2015,05,22,12,40,16.80
2015,05,22,12,41,16.70
2015,05,22,12,42,16.80
2015,05,22,12,43,16.80
2015,05,22,12,44,16.90
2015,05,22,12,45,17.00
2015,05,22,12,46,17.10
2015,05,22,12,47,17.20
2015,05,22,12,48,17.30
2015,05,22,12,49,17.30
2015,05,22,12,50,17.40
2015,05,22,12,51,17.40
2015,05,22,12,52,17.40
2015,05,22,12,53,17.40
2015,05,22,12,54,17.40
2015,05,22,12,55,17.40
2015,05,22,12,56,17.40
2015,05,22,12,57,17.40
2015,05,22,12,58,17.50
2015,05,22,12,59,17.50
2015,05,22,13,00,17.60
2015,05,22,13,01,17.60
2015,05,22,13,02,17.60
2015,05,22,13,03,17.60
2015,05,22,13,04,17.80
2015,05,22,13,05,17.80
2015,05,22,13,06,17.90
2015,05,22,13,07,18.10
2015,05,22,13,08,18.10
2015,05,22,13,09,18.10
2015,05,22,13,10,18.10
2015,05,22,13,11,18.10
2015,05,22,13,12,18.20
2015,05,22,13,13,18.30
2015,05,22,13,14,18.30
2015,05,22,13,15,18.30
2015,05,22,13,16,18.30
2015,05,22,13,17,18.30
2015,05,22,13,18,18.30
2015,05,22,13,19,18.40
2015,05,22,13,20,18.60
2015,05,22,13,21,18.80
2015,05,22,13,22,18.80
2015,05,22,13,23,18.70
2015,05,22,13,24,18.70
2015,05,22,13,25,18.70
2015,05,22,13,26,18.60
2015,05,22,13,27,18.70
2015,05,22,13,28,18.60
2015,05,22,13,29,18.50
2015,05,22,13,30,18.50
2015,05,22,13,31,18.50
2015,05,22,13,32,18.60
2015,05,22,13,33,18.70
2015,05,22,13,34,18.80
2015,05,22,13,35,19.00
2015,05,22,13,36,19.20
2015,05,22,13,37,19.30
2015,05,22,13,38,19.40
2015,05,22,13,39,19.50
2015,05,22,13,40,19.40
2015,05,22,13,41,19.30
2015,05,22,13,42,19.40
2015,05,22,13,43,19.40
2015,05,22,13,44,19.30
2015,05,22,13,45,19.20
2015,05,22,13,46,19.10
2015,05,22,13,47,19.00
2015,05,22,13,48,18.90
2015,05,22,13,49,18.70
2015,05,22,13,50,18.50
2015,05,22,13,51,18.40
2015,05,22,13,52,18.10
2015,05,22,13,53,18.10
2015,05,22,13,54,18.10
2015,05,22,13,55,18.00
2015,05,22,13,56,17.90
2015,05,22,13,57,17.80
2015,05,22,13,58,17.80
2015,05,22,13,59,17.70
2015,05,22,14,00,17.60
2015,05,22,14,01,17.60
2015,05,22,14,02,17.60
2015,05,22,14,03,17.50
2015,05,22,14,04,17.30
2015,05,22,14,05,17.20
2015,05,22,14,06,17.20
2015,05,22,14,07,17.10
2015,05,22,14,08,17.10
2015,05,22,14,09,17.00
2015,05,22,14,10,16.90
2015,05,22,14,11,16.90
2015,05,22,14,12,16.90
2015,05,22,14,13,16.90
2015,05,22,14,14,16.90
2015,05,22,14,15,16.80
2015,05,22,14,16,16.80
2015,05,22,14,17,16.80
2015,05,22,14,18,16.90
2015,05,22,14,19,17.00
2015,05,22,14,20,17.10
2015,05,22,14,21,17.30
2015,05,22,14,22,17.30
2015,05,22,14,23,17.30
2015,05,22,14,24,17.30
2015,05,22,14,25,17.20
2015,05,22,14,26,17.20
2015,05,22,14,27,17.20
2015,05,22,14,28,17.20
2015,05,22,14,29,17.30
2015,05,22,14,30,17.20
2015,05,22,14,31,17.20
2015,05,22,14,32,17.20
2015,05,22,14,33,17.10
2015,05,22,14,34,17.10
2015,05,22,14,35,17.10
2015,05,22,14,36,17.20
2015,05,22,14,37,17.30
2015,05,22,14,38,17.40
2015,05,22,14,39,17.60
2015,05,22,14,40,17.70
2015,05,22,14,41,17.90
2015,05,22,14,42,18.00
2015,05,22,14,43,18.10
2015,05,22,14,44,18.20
2015,05,22,14,45,18.30
2015,05,22,14,46,18.40
2015,05,22,14,47,18.40
2015,05,22,14,48,18.50
2015,05,22,14,49,18.50
2015,05,22,14,50,18.60
2015,05,22,14,51,18.70
2015,05,22,14,52,18.70
2015,05,22,14,53,18.80
2015,05,22,14,54,18.90
2015,05,22,14,55,19.00
2015,05,22,14,56,19.10
2015,05,22,14,57,19.20
2015,05,22,14,58,19.30
2015,05,22,14,59,19.50
2015,05,22,15,00,19.60
2015,05,22,15,01,19.70
2015,05,22,15,02,19.70
2015,05,22,15,03,19.80
2015,05,22,15,04,19.80
2015,05,22,15,05,19.90
2015,05,22,15,06,19.90
2015,05,22,15,07,19.90
2015,05,22,15,08,20.00
2015,05,22,15,09,20.00
2015,05,22,15,10,20.10
2015,05,22,15,11,20.20
2015,05,22,15,12,20.20
2015,05,22,15,13,20.30
2015,05,22,15,14,20.50
2015,05,22,15,15,20.70
2015,05,22,15,16,20.90
2015,05,22,15,17,20.80
2015,05,22,15,18,20.70
2015,05,22,15,19,20.50
2015,05,22,15,20,20.40
2015,05,22,15,21,20.30
2015,05,22,15,22,20.20
2015,05,22,15,23,20.10
2015,05,22,15,24,20.00
2015,05,22,15,25,19.80
2015,05,22,15,26,19.70
2015,05,22,15,27,19.70
2015,05,22,15,28,19.80
2015,05,22,15,29,19.80
2015,05,22,15,30,19.90
2015,05,22,15,31,19.90
2015,05,22,15,32,19.80
2015,05,22,15,33,19.80
2015,05,22,15,34,19.70
2015,05,22,15,35,19.50
2015,05,22,15,36,19.40
2015,05,22,15,37,19.30
2015,05,22,15,38,19.20
2015,05,22,15,39,19.00
2015,05,22,15,40,19.00
2015,05,22,15,41,18.90
2015,05,22,15,42,18.80
2015,05,22,15,43,18.70
2015,05,22,15,44,18.60
2015,05,22,15,45,18.70
2015,05,22,15,46,18.80
2015,05,22,15,47,18.70
2015,05,22,15,48,18.50
2015,05,22,15,49,18.50
2015,05,22,15,50,18.30
2015,05,22,15,51,18.10
2015,05,22,15,52,18.00
2015,05,22,15,53,17.90
2015,05,22,15,54,17.90
2015,05,22,15,55,17.80
2015,05,22,15,56,17.70
2015,05,22,15,57,17.80
2015,05,22,15,58,17.70
2015,05,22,15,59,17.80
2015,05,22,16,00,17.80
2015,05,22,16,01,17.90
2015,05,22,16,02,18.00
2015,05,22,16,03,18.20
2015,05,22,16,04,18.30
2015,05,22,16,05,18.40
2015,05,22,16,06,18.40
2015,05,22,16,07,18.50
2015,05,22,16,08,18.60
2015,05,22,16,09,18.60
2015,05,22,16,10,18.60
2015,05,22,16,11,18.60
2015,05,22,16,12,18.60
2015,05,22,16,13,18.60
2015,05,22,16,14,18.60
2015,05,22,16,15,18.60
2015,05,22,16,16,18.70
2015,05,22,16,17,18.70
2015,05,22,16,18,18.80
2015,05,22,16,19,18.90
2015,05,22,16,20,19.00
2015,05,22,16,21,19.00
2015,05,22,16,22,19.00
2015,05,22,16,23,18.90
2015,05,22,16,24,18.80
2015,05,22,16,25,18.80
2015,05,22,16,26,18.70
2015,05,22,16,27,18.70
2015,05,22,16,28,18.70
2015,05,22,16,29,18.70
2015,05,22,16,30,18.70
2015,05,22,16,31,18.70
2015,05,22,16,32,18.60
2015,05,22,16,33,18.60
2015,05,22,16,34,18.60
2015,05,22,16,35,18.70
2015,05,22,16,36,18.70
2015,05,22,16,37,18.70
2015,05,22,16,38,18.70
2015,05,22,16,39,18.70
2015,05,22,16,40,18.60
2015,05,22,16,41,18.60
2015,05,22,16,42,18.50
2015,05,22,16,43,18.40
2015,05,22,16,44,18.30
2015,05,22,16,45,18.30
2015,05,22,16,46,18.30
2015,05,22,16,47,18.30
2015,05,22,16,48,18.30
2015,05,22,16,49,18.30
2015,05,22,16,50,18.30
2015,05,22,16,51,18.30
2015,05,22,16,52,18.40
2015,05,22,16,53,18.40
2015,05,22,16,54,18.50
2015,05,22,16,55,18.60
2015,05,22,16,56,18.60
2015,05,22,16,57,18.70
2015,05,22,16,58,18.80
2015,05,22,16,59,18.90
2015,05,22,17,00,19.00
2015,05,22,17,01,19.10
2015,05,22,17,02,19.20
2015,05,22,17,03,19.30
2015,05,22,17,04,19.30
2015,05,22,17,05,19.30
2015,05,22,17,06,19.30
2015,05,22,17,07,19.30
2015,05,22,17,08,19.40
2015,05,22,17,09,19.40
2015,05,22,17,10,19.50
2015,05,22,17,11,19.60
2015,05,22,17,12,19.60
2015,05,22,17,13,19.60
2015,05,22,17,14,19.70
2015,05,22,17,15,19.70
2015,05,22,17,16,19.80
2015,05,22,17,17,19.90
2015,05,22,17,18,19.90
2015,05,22,17,19,19.90
2015,05,22,17,20,20.00
2015,05,22,17,21,20.00
2015,05,22,17,22,20.10
2015,05,22,17,23,20.10
2015,05,22,17,24,20.00
2015,05,22,17,25,19.90
2015,05,22,17,26,19.90
2015,05,22,17,27,20.00
2015,05,22,17,28,20.00
2015,05,22,17,29,20.10
2015,05,22,17,30,20.20
2015,05,22,17,31,20.20
2015,05,22,17,32,20.20
2015,05,22,17,33,20.20
2015,05,22,17,34,20.30
2015,05,22,17,35,20.20
2015,05,22,17,36,20.20
2015,05,22,17,37,20.20
2015,05,22,17,38,20.10
2015,05,22,17,39,20.10
2015,05,22,17,40,20.00
2015,05,22,17,41,19.90
2015,05,22,17,42,19.90
2015,05,22,17,43,19.90
2015,05,22,17,44,20.00
2015,05,22,17,45,20.10
2015,05,22,17,46,20.20
2015,05,22,17,47,20.20
2015,05,22,17,48,20.20
2015,05,22,17,49,20.30
2015,05,22,17,50,20.30
2015,05,22,17,51,20.30
2015,05,22,17,52,20.20
2015,05,22,17,53,20.20
2015,05,22,17,54,20.10
2015,05,22,17,55,20.00
2015,05,22,17,56,19.90
2015,05,22,17,57,19.80
2015,05,22,17,58,19.80
2015,05,22,17,59,19.70
2015,05,22,18,00,19.80
2015,05,22,18,01,19.70
2015,05,22,18,02,19.70
2015,05,22,18,03,19.80
2015,05,22,18,04,19.80
2015,05,22,18,05,19.90
2015,05,22,18,06,19.90
2015,05,22,18,07,19.90
2015,05,22,18,08,19.90
2015,05,22,18,09,19.90
2015,05,22,18,10,19.90
2015,05,22,18,11,19.90
2015,05,22,18,12,19.80
2015,05,22,18,13,19.70
2015,05,22,18,14,19.70
2015,05,22,18,15,19.70
2015,05,22,18,16,19.70
2015,05,22,18,17,19.60
2015,05,22,18,18,19.60
2015,05,22,18,19,19.50
2015,05,22,18,20,19.40
2015,05,22,18,21,19.40
2015,05,22,18,22,19.40
2015,05,22,18,23,19.40
2015,05,22,18,24,19.30
2015,05,22,18,25,19.30
2015,05,22,18,26,19.20
2015,05,22,18,27,19.10
2015,05,22,18,28,18.90
2015,05,22,18,29,18.80
2015,05,22,18,30,18.60
2015,05,22,18,31,18.40
2015,05,22,18,32,18.30
2015,05,22,18,33,18.20
2015,05,22,18,34,18.10
2015,05,22,18,35,18.10
2015,05,22,18,36,18.00
2015,05,22,18,37,17.90
2015,05,22,18,38,17.70
2015,05,22,18,39,17.60
2015,05,22,18,40,17.60
2015,05,22,18,41,17.50
2015,05,22,18,42,17.50
2015,05,22,18,43,17.40
2015,05,22,18,44,17.40
2015,05,22,18,45,17.30
2015,05,22,18,46,17.30
2015,05,22,18,47,17.20
2015,05,22,18,48,17.10
2015,05,22,18,49,17.00
2015,05,22,18,50,17.00
2015,05,22,18,51,16.90
2015,05,22,18,52,16.90
2015,05,22,18,53,16.80
2015,05,22,18,54,16.70
2015,05,22,18,55,16.70
2015,05,22,18,56,16.70
2015,05,22,18,57,16.60
2015,05,22,18,58,16.70
2015,05,22,18,59,16.60
2015,05,22,19,00,16.60
2015,05,22,19,01,16.60
2015,05,22,19,02,16.50
2015,05,22,19,03,16.50
2015,05,22,19,04,16.50
2015,05,22,19,05,16.50
2015,05,22,19,06,16.50
2015,05,22,19,07,16.50
2015,05,22,19,08,16.40
2015,05,22,19,09,16.40
2015,05,22,19,10,16.40
2015,05,22,19,11,16.40
2015,05,22,19,12,16.40
2015,05,22,19,13,16.40
2015,05,22,19,14,16.40
2015,05,22,19,15,16.40
2015,05,22,19,16,16.40
2015,05,22,19,17,16.40
2015,05,22,19,18,16.40
2015,05,22,19,19,16.40
2015,05,22,19,20,16.40
2015,05,22,19,21,16.40
2015,05,22,19,22,16.50
2015,05,22,19,23,16.50
2015,05,22,19,24,16.50
2015,05,22,19,25,16.50
2015,05,22,19,26,16.40
2015,05,22,19,27,16.40
2015,05,22,19,28,16.40
2015,05,22,19,29,16.30
2015,05,22,19,30,16.30
2015,05,22,19,31,16.30
2015,05,22,19,32,16.30
2015,05,22,19,33,16.30
2015,05,22,19,34,16.30
2015,05,22,19,35,16.30
2015,05,22,19,36,16.30
2015,05,22,19,37,16.20
2015,05,22,19,38,16.20
2015,05,22,19,39,16.20
2015,05,22,19,40,16.20
2015,05,22,19,41,16.20
2015,05,22,19,42,16.20
2015,05,22,19,43,16.20
2015,05,22,19,44,16.10
2015,05,22,19,45,16.10
2015,05,22,19,46,16.10
2015,05,22,19,47,16.10
2015,05,22,19,48,16.10
2015,05,22,19,49,16.10
2015,05,22,19,50,16.00
2015,05,22,19,51,16.00
2015,05,22,19,52,16.00
2015,05,22,19,53,15.90
2015,05,22,19,54,15.90
2015,05,22,19,55,15.90
2015,05,22,19,56,15.90
2015,05,22,19,57,15.80
2015,05,22,19,58,15.80
2015,05,22,19,59,15.80
2015,05,22,20,00,15.80
2015,05,22,20,01,15.70
2015,05,22,20,02,15.70
2015,05,22,20,03,15.70
2015,05,22,20,04,15.70
2015,05,22,20,05,15.70
2015,05,22,20,06,15.70
2015,05,22,20,07,15.60
2015,05,22,20,08,15.60
2015,05,22,20,09,15.60
2015,05,22,20,10,15.60
2015,05,22,20,11,15.60
2015,05,22,20,12,15.60
2015,05,22,20,13,15.50
2015,05,22,20,14,15.50
2015,05,22,20,15,15.50
2015,05,22,20,16,15.50
2015,05,22,20,17,15.40
2015,05,22,20,18,15.40
2015,05,22,20,19,15.40
2015,05,22,20,20,15.40
2015,05,22,20,21,15.40
2015,05,22,20,22,15.40
2015,05,22,20,23,15.30
2015,05,22,20,24,15.30
2015,05,22,20,25,15.30
2015,05,22,20,26,15.30
2015,05,22,20,27,15.30
2015,05,22,20,28,15.20
2015,05,22,20,29,15.20
2015,05,22,20,30,15.20
2015,05,22,20,31,15.20
2015,05,22,20,32,15.10
2015,05,22,20,33,15.10
2015,05,22,20,34,15.10
2015,05,22,20,35,15.10
2015,05,22,20,36,15.10
2015,05,22,20,37,15.00
2015,05,22,20,38,15.00
2015,05,22,20,39,15.00
2015,05,22,20,40,14.90
2015,05,22,20,41,14.90
2015,05,22,20,42,14.90
2015,05,22,20,43,14.90
2015,05,22,20,44,14.90
2015,05,22,20,45,14.90
2015,05,22,20,46,14.90
2015,05,22,20,47,14.90
2015,05,22,20,48,14.80
2015,05,22,20,49,14.80
2015,05,22,20,50,14.80
2015,05,22,20,51,14.80
2015,05,22,20,52,14.80
2015,05,22,20,53,14.80
2015,05,22,20,54,14.70
2015,05,22,20,55,14.70
2015,05,22,20,56,14.70
2015,05,22,20,57,14.70
2015,05,22,20,58,14.70
2015,05,22,20,59,14.70
2015,05,22,21,00,14.70
2015,05,22,21,01,14.60
2015,05,22,21,02,14.60
2015,05,22,21,03,14.60
2015,05,22,21,04,14.60
2015,05,22,21,05,14.60
2015,05,22,21,06,14.60
2015,05,22,21,07,14.60
2015,05,22,21,08,14.50
2015,05,22,21,09,14.50
2015,05,22,21,10,14.50
2015,05,22,21,11,14.50
2015,05,22,21,12,14.50
2015,05,22,21,13,14.50
2015,05,22,21,14,14.40
2015,05,22,21,15,14.40
2015,05,22,21,16,14.40
2015,05,22,21,17,14.40
2015,05,22,21,18,14.40
2015,05,22,21,19,14.40
2015,05,22,21,20,14.40
2015,05,22,21,21,14.40
2015,05,22,21,22,14.30
2015,05,22,21,23,14.30
2015,05,22,21,24,14.30
2015,05,22,21,25,14.30
2015,05,22,21,26,14.30
2015,05,22,21,27,14.30
2015,05,22,21,28,14.30
2015,05,22,21,29,14.30
2015,05,22,21,30,14.20
2015,05,22,21,31,14.20
2015,05,22,21,32,14.20
2015,05,22,21,33,14.20
2015,05,22,21,34,14.20
2015,05,22,21,35,14.20
2015,05,22,21,36,14.20
2015,05,22,21,37,14.20
2015,05,22,21,38,14.20
2015,05,22,21,39,14.20
2015,05,22,21,40,14.20
2015,05,22,21,41,14.10
2015,05,22,21,42,14.10
2015,05,22,21,43,14.10
2015,05,22,21,44,14.10
2015,05,22,21,45,14.10
2015,05,22,21,46,14.10
2015,05,22,21,47,14.10
2015,05,22,21,48,14.00
2015,05,22,21,49,14.00